This is the latest recevied weather packets stored in our database for station/object N3WMC. If no packets are shown the sender has not sent any weather packets the latest 10 day(s).
| Time | Temp. | Humidity | Pressure | Rain* | Wind** | Luminosity | Snow |
|---|---|---|---|---|---|---|---|
| 1787743228 | 13.89° C | 99% | 1020.3 hPa | 0 mm | - | 31 W/m² | - |
| 1787742925 | 13.89° C | 99% | 1020.1 hPa | 0 mm | - | 24 W/m² | - |
| 1787742619 | 13.89° C | 99% | 1020.2 hPa | 0 mm | - | 19 W/m² | - |
| 1787742314 | 13.89° C | 99% | 1020.3 hPa | 0 mm | - | 15 W/m² | - |
| 1787742011 | 13.89° C | 99% | 1020.1 hPa | 0 mm | - | 12 W/m² | - |
| 1787741706 | 13.89° C | 99% | 1020.1 hPa | 0 mm | - | 8 W/m² | - |
| 1787741401 | 13.89° C | 99% | 1020.2 hPa | 0 mm | - | 6 W/m² | - |
| 1787741101 | 13.89° C | 99% | 1019.9 hPa | 0 mm | - | 4 W/m² | - |
| 1787740795 | 13.89° C | 99% | 1020.1 hPa | 0 mm | - | 2 W/m² | - |
| 1787740494 | 13.89° C | 99% | 1019.9 hPa | 0 mm | - | 1 W/m² | - |
| 1787740190 | 13.33° C | 99% | 1019.9 hPa | 0 mm | - | 1 W/m² | - |
| 1787739885 | 13.33° C | 99% | 1020 hPa | 0 mm | - | 0 W/m² | - |
| 1787739582 | 13.89° C | 99% | 1020 hPa | 0 mm | - | 0 W/m² | - |
| 1787739281 | 13.33° C | 99% | 1020.1 hPa | 0 mm | - | 0 W/m² | - |
| 1787738977 | 13.89° C | 99% | 1019.9 hPa | 0 mm | - | 0 W/m² | - |
| 1787738673 | 13.89° C | 99% | 1019.8 hPa | 0 mm | - | 0 W/m² | - |
| 1787738372 | 13.89° C | 99% | 1019.6 hPa | 0 mm | - | 0 W/m² | - |
| 1787738066 | 13.89° C | 99% | 1019.6 hPa | 0 mm | - | 0 W/m² | - |
| 1787737762 | 13.89° C | 99% | 1019.9 hPa | 0 mm | - | 0 W/m² | - |
| 1787737461 | 13.89° C | 99% | 1020.1 hPa | 0 mm | - | 0 W/m² | - |
| 1787737157 | 13.89° C | 99% | 1019.8 hPa | 0 mm | - | 0 W/m² | - |
| 1787736853 | 13.89° C | 99% | 1019.9 hPa | 0 mm | - | 0 W/m² | - |
| 1787736548 | 13.89° C | 99% | 1019.8 hPa | 0 mm | - | 0 W/m² | - |
| 1787736248 | 13.89° C | 99% | 1019.6 hPa | 0 mm | - | 0 W/m² | - |
| 1787735946 | 13.89° C | 99% | 1019.6 hPa | 0 mm | - | 0 W/m² | - |
* Rain latest hour (hover to see other rain measurements)
** Current wind speed in m/s (hover to see current wind gust speed)